User: anonymous   Login
Location: B�rgermoos
(47.6500°N, 9.0667°E)
Time: 23:30:51
(UTC+00:00)
Language:

Courier 1B Rocket - Orbit

View from above orbital plane
View from above orbital plane
View from above satellite
View from above satellite

Ground track
Ground track

The orbit data is extracted from the following two-line orbital elements,

1 00059U 60013B   21209.50178793  .00000097  00000-0  13897-4 0  9996
2 00059  28.2481 292.4160 0189247  94.2373 267.9821 13.52986551  1296
Epoch (UTC): 28 July 2021 12:02:34
Eccentricity: 0.0189247
inclination: 28.2481°
perigee height: 920 km
apogee height: 1202 km
right ascension of ascending node: 292.4160°
argument of perigee: 94.2373°
revolutions per day: 13.52986551
mean anomaly at epoch: 267.9821°
orbit number at epoch: 129

The dashed part of the orbit path shows where the satellite is in the earth's shadow,  

DLR